SCOUT G-1 DEB

Satellite information

Favourite Embed

Satellite Type and Status

DEBRISIN ORBIT

Key statistics

Satellite SCOUT G-1 DEB at a glance.

Uptime

13809

Days in orbit

Revolutions

≈ 14.1

Per day

Orbit

SSO

Sun Synchronous Orbit

Inclination

90.3

Latest

Satellite identification and parameters

Extended collection of information and parameters for SCOUT G-1 DEB.

Object identification

Identified? True

Debris? True

Object name: SCOUT G-1 DEB

International designator: 1987-080P

Object number (NORAD): 29211

Object ID (CCSDS): 29211

Country: UNITED STATES OF AMERICA (US)

Current information (Y/N): Y

RCS size: SMALL

Orbital parameters

Period: 101.789 minutes

Inclination: 90.3433 deg

SMA: 7221.493 km

Apoapsis: 893.392 km

Periapsis: 793.325 km

RAAN: 105.4616 deg

Eccentricy: 0.0069284

Argument of periapsis: 155.4695 deg

Mean anomaly: 204.9815 deg

Mean motion: 14.14693083 rev/day

Mean motion (dot): 0.00005045 rev/day2

B* drag term: 0.0025573 1/REarth

Two-line elements (TLE)

Creation date: June 9, 2025, 4:21 a.m.

Reference frame: TEME

Reference center: EARTH

Epoch: June 8, 2025, 1:47 p.m. UTC

TLE line 0: 0 SCOUT G-1 DEB

TLE line 1: 1 29211U 87080P 25159.57463077 .00005045 00000-0 25573-2 0 9997

TLE line 2: 2 29211 90.3433 105.4616 0069284 155.4695 204.9815 14.14693083 50458

Live tracking on map

Real-time ground track for satellite SCOUT G-1 DEB.

In-orbit conjunctions

A list of the most updated potential collisions computed for object SCOUT G-1 DEB.

Target Orbit TCA Probability of collision Miss distance Type
CZ-6A R/B SSO 2024-09-30 19:42:24 0.0001139673 247.0 (m) ROCKET BODY
ATLAS CENTAUR 2 R/B LEO 2024-09-25 08:17:38 0.0001502281 501.0 (m) ROCKET BODY
FENGYUN 1C DEB SSO 2024-08-04 18:08:51 0.0001695398 80.0 (m) DEBRIS

Associated space launch

The Transit-O series of satellites that closely followed the design of Transit 5C-1 were also called “Oscars” (Oscar is the phonetic alphabet for “O”, i. e., operational). They were also called NNS (Navy Navigation Satellite) or shortened NavSat.

SCOUT G-1 DEB was lifted into orbit during the mission ‘Scout G-1 | Transit-O 27,29’, on board a Scout G-1 space rocket.

The launch took place on Sept. 16, 1987, 7:22 p.m. from Space Launch Complex 5.

For more information about the launch, click the button.

Launch to space Scout G-1 | Transit-O 27,29
Scout G-1 | Transit-O 27,29

Agency: N/A

Status: Launch Successful

Launch date: Sept. 16, 1987, 7:22 p.m. UTC

Rocket: Scout G-1

Launch pad: Space Launch Complex 5

Location: Vandenberg SFB, CA, USA

...

Latest news about this satellite

There are no fresh news available about this satellite. Check back as we update our databases every day.


Newsletter sign-up

Weekly statistics, charts and insights to help you stay on top of the space industry.